Lapse_Rate
7.2 6.9 6.8 6.5 6.4 6.4 6.4 6.7 6.7 7.4 7.5 8.0 8.1 8.2 8.2 8.3 8.0 7.7 7.2 6.8 6.6 6.5 6.1 5.3 5.4 5.3 5.3 5.2 5.6 5.8 5.3 5.6 5.9 6.1 6.3 6.5 6.6 6.5 6.5 6.5 6.4 6.5 6.6 6.7
7.4 7.0 6.7 6.8 6.9 6.9 6.9 6.8 7.2 7.9 7.9 8.0 8.1 8.4 8.3 8.6 7.8 7.6 7.2 6.7 6.8 6.6 6.3 5.5 5.8 5.7 5.2 5.3 4.5 5.4 5.1 4.9 5.6 5.9 6.0 6.1 6.1 6.2 6.1 6.0 6.3 6.5 6.6 6.6
7.5 7.2 6.8 6.8 7.2 7.4 7.1 7.0 7.3 7.5 8.2 8.1 8.3 8.5 8.5 8.1 8.1 7.6 7.3 6.6 6.8 6.4 6.3 5.8 5.6 5.2 5.5 5.0 5.0 4.8 5.0 4.9 5.3 5.6 5.8 5.9 5.8 5.9 6.1 6.4 6.6 6.5 6.4 6.4
7.5 7.2 7.1 7.1 7.0 6.8 6.8 6.9 7.4 7.7 8.3 7.8 8.3 7.7 8.2 8.2 8.0 7.8 7.5 7.1 6.4 6.3 6.4 6.3 6.1 5.6 5.3 5.3 4.8 4.6 4.7 4.8 4.8 5.3 5.6 5.8 6.0 6.0 6.2 6.2 6.1 6.0 6.0 6.1
7.4 7.5 7.4 7.0 6.5 6.7 6.6 7.2 7.4 7.6 7.9 8.2 8.2 8.1 7.9 8.2 7.8 7.6 7.2 7.4 6.9 6.5 6.3 6.1 6.1 5.5 5.0 5.7 4.8 4.7 5.0 4.9 5.4 4.9 5.2 5.5 5.6 5.7 5.8 5.9 5.9 5.9 6.0 6.1
7.5 7.4 6.9 6.6 6.8 6.7 6.8 7.2 7.3 7.8 7.9 6.9 7.4 7.4 7.6 7.4 7.0 6.7 6.8 7.1 7.2 6.5 6.4 6.1 5.7 5.5 5.5 5.7 5.1 5.4 5.6 4.8 4.9 5.1 5.3 5.5 5.6 5.8 5.7 5.6 5.6 5.7 5.9 5.9
7.4 7.3 6.8 6.6 6.9 6.8 6.9 7.2 6.2 6.1 6.1 6.0 7.4 7.7 7.4 7.4 7.0 6.6 6.5 6.6 6.5 6.2 6.3 6.1 6.1 5.8 5.8 5.6 5.3 5.1 5.0 4.9 4.5 4.8 5.5 5.3 5.5 5.6 5.7 5.5 5.5 5.3 5.4 5.8
6.3 7.0 6.8 6.4 5.9 5.8 6.0 5.8 5.4 5.6 5.1 5.4 7.1 7.1 7.0 7.0 6.8 6.5 6.3 6.3 6.3 6.2 6.1 6.1 6.0 6.1 6.3 6.3 6.0 6.0 5.6 5.6 4.9 5.0 4.7 4.4 5.0 5.2 5.5 5.6 5.4 5.5 5.5 5.7
6.0 6.6 6.7 6.2 6.0 5.9 5.9 5.6 5.6 5.6 5.3 5.3 6.5 7.0 6.8 6.3 6.3 6.5 6.5 6.6 6.4 6.2 6.2 5.9 5.7 5.6 5.5 6.1 6.0 5.8 5.8 5.2 5.0 4.8 4.7 4.8 5.0 4.8 5.2 5.3 5.4 5.4 5.4 6.0
5.9 5.9 6.6 6.0 6.0 5.9 5.6 5.7 5.7 5.7 4.8 5.0 5.6 6.4 6.1 6.1 6.2 6.3 6.4 6.8 6.7 6.3 6.1 6.0 5.9 5.4 5.0 5.0 5.4 5.5 5.3 5.2 5.0 4.7 4.6 4.5 4.7 4.9 5.1 5.1 5.6 5.7 5.2 5.4
5.6 5.6 6.5 6.0 5.8 6.0 5.6 5.4 5.3 5.1 5.0 4.6 4.1 5.4 5.2 5.4 5.8 6.2 6.1 6.2 6.2 6.1 6.0 6.0 6.1 6.1 5.6 5.3 5.4 5.1 5.3 5.6 5.5 5.4 4.7 4.5 4.8 4.9 4.5 4.5 4.8 4.7 5.1 5.3
5.3 5.4 5.5 5.8 5.6 5.7 5.6 4.9 5.1 5.1 5.0 4.9 4.7 4.9 4.9 5.3 5.6 5.8 5.9 6.1 5.7 5.7 5.9 5.9 6.0 6.1 6.0 5.7 5.6 5.8 5.7 5.7 5.7 5.8 5.9 5.7 5.4 5.5 5.2 5.2 5.1 4.9 4.8 4.4
4.8 5.0 4.9 5.8 5.6 5.4 5.4 5.1 4.9 4.8 4.7 4.7 4.4 5.0 5.0 5.5 5.7 5.7 5.7 5.7 5.6 5.7 5.8 6.0 6.0 5.9 5.9 6.0 5.9 5.7 5.7 5.8 5.9 5.9 5.9 6.0 6.2 6.1 6.0 5.9 5.8 5.5 5.5 5.5
4.8 5.0 4.9 5.1 5.3 5.1 4.9 4.6 4.9 4.6 4.3 4.7 5.1 5.6 5.1 5.4 5.9 5.6 5.3 5.2 5.2 5.1 5.0 5.2 5.2 5.4 5.3 5.2 5.3 5.5 5.4 5.1 5.1 5.3 5.4 5.7 5.8 5.9 6.0 6.1 6.3 6.2 6.0 6.1
5.0 5.0 5.0 5.2 5.2 4.9 5.4 6.0 5.6 5.5 5.4 4.7 5.1 5.0 5.0 4.9 4.9 5.1 5.3 5.1 5.2 5.0 4.9 4.9 4.9 5.0 5.1 4.9 4.7 4.7 4.8 5.1 5.3 5.2 5.1 5.2 5.3 5.4 5.5 5.8 5.9 5.9 6.1 6.4
4.4 4.3 4.3 4.7 5.2 5.1 5.3 5.6 5.4 5.5 5.0 4.8 4.8 4.7 5.0 4.0 4.0 4.1 4.4 4.7 4.9 4.8 4.6 4.8 5.0 5.1 5.0 5.1 5.0 5.0 5.0 5.0 5.1 5.3 5.5 5.4 5.3 5.3 5.4 5.5 5.6 5.7 5.9 5.9
4.3 4.2 4.2 4.8 4.9 4.9 5.5 5.4 5.3 5.3 5.3 5.3 5.2 5.5 4.7 4.3 4.1 4.0 4.7 4.6 4.6 4.4 4.4 4.4 4.4 4.5 4.8 5.0 5.0 5.1 5.1 5.1 5.2 5.2 5.2 5.3 5.3 5.6 5.7 5.6 5.5 5.6 5.8 5.8
4.7 4.2 3.7 4.1 4.7 3.7 5.0 5.2 5.2 5.1 5.1 5.1 5.0 4.7 4.4 4.7 4.6 4.0 4.0 4.0 4.1 4.0 4.2 4.3 4.2 4.3 4.3 4.4 4.6 4.8 5.2 5.3 5.2 5.1 5.2 5.2 5.1 5.3 5.5 5.7 5.8 5.8 5.8 5.8
5.4 4.9 4.4 4.4 4.3 4.7 4.7 4.9 4.8 4.9 4.4 4.5 4.1 4.0 3.9 3.9 4.0 4.1 4.1 3.9 3.9 4.2 4.3 4.3 4.4 4.4 4.5 4.5 4.3 4.4 4.8 5.1 5.1 5.4 5.3 5.4 5.3 5.4 5.6 5.5 5.6 5.8 5.9 5.7
5.7 5.6 5.0 4.8 4.7 4.4 4.8 4.7 4.5 4.5 3.4 3.9 4.0 3.7 3.7 3.6 3.7 4.3 4.5 4.4 4.6 4.6 4.4 4.6 4.8 4.8 4.7 4.8 4.9 4.8 4.9 4.9 5.0 5.3 5.3 5.3 5.4 5.4 5.6 5.9 5.9 5.7 5.8 5.7
5.4 5.3 5.1 5.2 4.7 5.0 5.1 4.7 4.3 4.1 3.9 3.7 3.4 3.4 3.3 3.2 3.2 3.4 3.9 4.4 4.4 3.9 3.9 4.1 4.0 4.1 4.2 4.3 4.7 5.0 4.8 4.6 4.7 5.0 5.4 5.5 5.6 5.6 5.5 5.6 5.8 5.9 6.0 5.9
4.7 5.0 4.7 4.5 4.3 4.3 4.5 4.6 4.7 4.3 4.1 3.9 3.6 3.5 3.6 3.6 3.8 3.8 3.8 3.6 3.7 3.8 4.1 4.4 4.2 4.1 4.0 3.9 4.0 4.3 4.4 4.5 4.4 4.5 4.7 4.9 5.1 5.3 5.4 5.4 5.5 5.8 5.6 5.6
4.2 4.4 4.8 4.6 4.8 4.7 4.6 4.5 4.3 4.3 4.3 4.1 4.1 4.1 4.1 4.1 4.1 3.8 3.8 3.8 3.8 3.9 3.9 3.7 4.0 4.3 4.4 4.4 4.3 4.4 4.3 4.5 4.9 4.9 4.7 4.7 4.7 4.6 4.8 4.9 4.8 5.0 5.2 5.5
3.9 4.1 4.1 4.3 4.3 4.2 4.1 3.9 3.8 3.9 4.0 3.8 4.0 4.0 4.0 4.0 4.1 4.1 4.2 4.5 4.7 4.7 4.7 4.8 4.6 4.5 4.5 4.7 5.0 5.1 5.0 5.0 5.1 5.2 5.3 5.2 5.0 4.8 4.6 4.6 4.6 4.6 4.5 4.8
3.7 3.7 3.8 3.8 3.8 3.6 3.6 3.7 3.6 3.6 3.8 3.8 3.8 3.8 4.0 4.2 4.4 4.7 4.9 5.2 5.4 5.7 6.1 6.3 6.5 6.6 6.4 5.8 5.5 5.5 5.7 6.0 6.2 6.5 6.6 6.6 6.2 5.5 5.1 5.2 4.8 4.6 4.6 4.6
3.7 3.7 3.7 3.6 3.7 3.7 3.6 3.8 4.0 4.0 4.0 4.2 4.5 4.5 4.6 5.0 5.4 5.8 6.2 6.6 6.8 7.1 7.0 6.9 6.9 6.9 6.9 6.6 6.0 6.0 5.8 5.8 6.1 6.5 6.9 7.3 7.4 6.9 6.1 6.0 5.8 5.4 5.3 5.2
Wind_Speed
4 6 4 8 4 6 7 4 6 6 4 6 4 5 8 5 3 2 3 3 4 6 4 5 7 10 8 8 1 5 8 8 7 3 3 2 2 2 2 7 13 17 16 17
5 2 4 7 5 5 5 4 7 9 2 1 6 5 6 4 3 3 2 5 6 4 4 4 6 8 9 8 6 4 5 7 7 5 3 3 3 2 2 6 9 14 16 17
2 4 7 5 4 8 4 3 6 5 8 0 4 7 8 4 5 3 5 5 6 7 8 4 8 9 10 9 5 3 4 4 5 5 4 3 3 2 2 3 3 7 16 18
4 3 6 7 3 3 5 2 5 5 5 3 7 3 7 8 9 9 9 7 4 8 8 5 5 7 11 10 7 9 7 4 5 7 4 6 4 4 4 4 3 5 12 12
4 6 6 5 7 1 8 5 3 2 3 3 11 5 7 5 9 9 10 10 8 6 10 9 7 8 6 10 9 7 6 3 5 6 8 6 4 3 2 2 6 6 6 11
5 4 1 3 7 2 11 3 4 4 3 5 5 3 6 5 5 7 9 12 11 5 1 6 6 4 4 2 4 4 4 7 4 6 7 8 7 5 4 3 3 4 3 4
7 3 5 2 7 7 11 7 4 6 5 2 5 4 3 5 3 3 8 10 10 8 4 3 3 5 5 6 6 5 6 9 10 8 8 8 7 7 8 7 5 6 4 4
3 9 7 6 2 3 4 3 3 1 2 5 7 4 2 4 4 5 4 5 8 10 8 7 4 3 4 5 6 7 7 9 9 11 14 11 8 5 6 7 7 6 7 7
4 5 4 2 2 2 6 5 1 3 1 1 4 5 3 8 11 12 12 15 14 10 10 9 8 6 6 6 6 7 10 10 9 12 11 12 11 11 9 11 8 6 7 6
0 4 1 5 2 3 4 1 4 4 4 4 4 4 3 9 16 15 16 15 14 13 12 8 7 7 5 6 6 5 5 8 8 9 9 9 10 11 11 8 9 11 9 9
2 2 6 4 4 2 5 3 5 4 2 2 3 4 2 7 7 13 14 13 11 13 12 12 11 9 6 6 6 6 6 6 4 4 6 8 9 10 9 9 11 12 11 10
1 3 4 5 3 2 2 2 4 4 4 1 2 4 5 5 9 15 16 15 12 9 11 11 12 11 12 10 8 6 6 6 6 5 4 6 7 7 8 10 11 10 11 10
2 2 5 7 3 1 2 1 3 4 3 4 4 4 6 13 17 16 17 17 15 15 17 17 17 15 14 14 11 9 8 7 6 6 6 7 6 6 7 8 9 8 8 9
3 2 6 6 7 1 4 2 4 4 2 4 6 7 11 13 13 13 14 13 12 14 15 16 17 16 14 14 14 15 14 10 7 6 7 8 8 7 7 7 8 8 10 9
4 5 5 6 9 4 7 10 7 9 7 7 3 2 5 6 9 9 6 12 17 18 19 17 17 16 16 17 17 16 14 13 11 9 7 7 7 7 7 6 7 7 8 9
3 3 1 5 9 4 7 9 8 4 1 8 4 4 3 6 6 10 8 13 16 17 17 18 18 18 17 17 16 17 15 15 13 12 10 7 7 7 6 6 7 6 6 7
1 2 1 5 3 7 6 2 2 5 6 3 2 4 8 9 13 14 7 10 13 16 18 19 19 18 18 18 17 17 15 14 13 12 11 9 8 9 7 6 5 7 7 7
4 3 2 4 3 2 3 6 9 13 8 9 8 10 9 9 13 15 9 16 19 18 18 17 16 18 18 18 17 17 17 16 14 14 13 9 8 9 8 7 6 7 5 8
5 4 3 2 2 3 3 3 3 3 5 8 7 8 10 13 12 3 16 18 13 16 16 15 16 17 19 19 18 18 18 16 15 15 14 12 10 11 10 10 10 7 5 6
6 3 2 1 2 5 2 3 5 4 4 8 8 8 11 12 6 5 19 17 15 14 13 15 16 16 16 18 19 19 18 17 17 17 16 15 12 11 12 11 11 7 5 6
3 1 5 4 4 3 3 11 6 3 1 7 8 9 11 7 6 14 16 20 18 15 16 16 14 14 16 18 18 19 18 18 18 18 19 18 14 13 13 12 9 7 6 4
5 5 4 2 3 7 9 0 1 2 3 7 7 8 9 10 12 12 12 13 14 16 21 23 18 16 16 15 16 18 19 20 20 19 19 18 16 11 10 11 8 6 6 7
2 1 1 1 1 4 7 8 4 4 2 4 6 7 8 9 12 12 13 14 14 15 14 14 15 19 18 18 18 20 18 19 19 20 21 19 18 12 11 9 9 6 7 6
2 1 2 2 4 4 7 5 5 4 4 5 6 9 9 10 11 12 12 13 13 14 15 15 16 16 17 18 20 20 21 20 19 19 19 18 17 13 10 7 8 8 7 7
1 4 1 2 3 8 6 6 4 4 5 6 7 6 8 9 11 12 12 13 13 14 14 14 16 17 18 18 20 21 22 20 19 19 17 17 14 12 9 9 8 9 9 11
3 1 1 1 3 1 2 3 6 5 6 6 6 8 7 7 10 11 11 11 12 14 14 14 16 17 18 19 19 21 21 21 20 18 14 13 12 8 7 7 7 17 15 18
Wind_Direction
350 44 324 297 243 239 268 252 274 275 269 344 347 293 303 330 12 179 160 134 172 154 148 215 184 145 129 142 24 252 175 154 144 130 132 116 178 189 216 210 207 198 195 191
11 319 299 289 286 274 299 292 319 295 279 334 344 358 342 31 17 331 296 149 191 163 149 135 109 111 104 91 102 6 261 167 172 160 143 151 160 187 198 209 214 204 193 187
182 273 325 337 323 347 339 312 313 266 319 139 340 21 3 336 341 24 3 16 161 164 137 144 138 137 121 133 149 217 324 246 152 140 120 89 89 81 159 201 207 207 202 196
242 310 337 312 338 32 317 85 295 309 24 16 16 23 6 346 22 25 360 344 333 144 143 157 155 176 183 127 191 194 198 216 190 160 172 177 182 173 198 186 181 202 207 204
280 346 348 339 305 360 257 346 293 354 36 20 357 69 302 356 9 358 348 346 329 174 159 170 185 223 210 145 174 183 164 239 206 202 199 197 196 207 140 148 187 197 200 208
261 284 282 272 310 274 296 31 36 47 47 40 323 57 342 3 337 331 336 358 3 1 172 159 155 196 256 133 172 154 158 225 226 204 226 208 207 181 163 184 215 219 204 211
327 338 322 1 350 355 12 30 3 19 15 249 336 42 243 329 356 327 345 355 2 360 356 336 199 181 202 239 198 195 176 218 220 237 233 224 216 192 197 198 203 191 202 214
41 333 9 350 63 293 349 46 106 30 1 292 337 21 330 342 18 32 54 2 355 359 351 340 306 250 221 209 229 216 206 223 209 211 231 231 216 213 212 204 204 207 207 217
358 288 319 39 334 70 322 40 259 103 178 54 308 318 15 31 19 2 1 4 350 343 345 343 334 313 282 256 213 200 204 211 207 213 217 218 214 215 222 229 214 219 213 211
5 301 316 293 37 32 79 229 26 12 24 355 324 300 251 14 2 354 354 344 337 338 346 348 341 322 316 306 295 276 234 226 217 221 224 227 223 228 226 222 208 211 216 212
109 122 291 355 34 289 357 22 49 111 95 112 320 287 3 22 342 349 345 334 324 348 350 346 353 353 357 353 350 330 323 310 290 235 218 228 230 228 227 219 230 227 223 207
28 152 292 272 295 293 172 127 113 107 294 101 174 274 100 25 28 13 1 352 3 7 3 4 359 4 11 4 359 358 341 335 319 303 273 248 243 232 226 220 226 220 221 211
160 330 327 349 359 5 58 106 124 109 97 207 158 254 15 25 28 20 12 11 15 17 17 10 12 9 4 3 359 352 348 337 331 333 321 308 279 249 235 231 225 223 221 214
126 177 182 215 240 129 298 224 201 142 157 207 221 270 17 1 5 2 3 1 8 13 11 8 5 359 358 359 357 355 348 343 332 333 327 316 307 295 269 251 238 230 223 212
140 224 180 256 274 238 256 258 220 191 189 192 268 134 8 353 345 336 344 1 6 6 4 2 356 353 354 353 351 348 344 340 333 323 319 304 303 302 290 265 245 228 211 214
17 284 182 260 264 269 257 267 256 221 232 267 217 161 37 320 320 352 1 6 1 358 353 349 347 345 347 345 340 335 333 332 330 318 304 298 300 298 286 277 262 236 215 212
251 199 2 266 335 309 296 12 97 111 58 328 52 32 2 346 340 333 11 9 356 351 345 341 338 335 333 332 330 321 320 320 320 314 308 299 299 299 289 279 261 241 226 206
189 157 199 282 348 257 344 19 95 103 67 34 24 6 346 333 313 301 41 5 354 343 338 335 332 328 326 323 322 320 320 317 314 308 305 299 290 283 283 276 252 240 218 209
169 155 243 247 245 302 246 36 40 37 89 36 359 340 339 331 313 183 16 3 335 330 328 325 327 324 321 322 322 320 317 315 313 307 306 302 292 287 280 274 268 239 213 207
92 83 156 177 236 257 71 341 357 285 185 12 359 340 339 339 351 300 337 337 333 329 325 326 325 323 321 321 319 318 315 314 310 306 304 301 291 279 276 259 258 243 223 216
113 170 225 243 260 285 338 308 313 172 311 340 349 349 344 340 305 308 323 326 330 328 330 333 328 329 327 323 324 320 317 313 308 308 303 298 290 277 268 259 236 212 211 188
186 174 208 182 246 256 336 147 31 327 339 342 346 349 333 321 314 314 318 323 326 331 338 337 337 333 330 328 325 320 315 310 308 303 298 294 293 281 275 245 230 203 189 201
213 280 182 239 350 107 49 84 36 1 336 1 338 328 336 321 322 325 329 327 327 334 333 334 331 327 329 329 330 322 316 314 309 308 301 295 288 285 271 238 220 196 190 197
122 6 188 160 130 127 106 80 36 19 9 352 338 339 333 325 324 324 323 329 336 338 333 333 328 326 324 328 329 327 321 318 311 301 302 297 292 290 271 234 218 205 193 200
17 340 52 95 66 126 120 74 21 15 15 355 333 328 325 322 324 326 326 332 330 325 331 330 329 328 323 330 331 328 327 322 317 309 303 296 283 278 263 231 224 219 216 197
3 126 184 311 62 331 38 74 27 9 356 331 320 323 328 322 318 321 321 322 319 328 326 329 327 325 325 330 330 329 332 327 320 314 310 304 289 274 256 235 231 232 226 215